Weather in Alexandria

Egypt     31˚12′52″N   29˚56′44″E
temp.,
°C
wind,
m/s
gust,
m/s
humid.,
%
clouds,
%
prec.,
mm/h
press.,
hPa
HPBL,
m
3 december, thu
thu323:00+18˚se33640 0.4 1018239
02:00+18˚ese34610 0.5 1017240
05:00+17˚ese34630 0.0 1017223
08:00+16˚se33644 0.0 1018170
11:00+20˚s344846 0.0 1018735
14:00+22˚wsw234367 0.0 10151292
17:00+20˚nw225268 0.0 1016467
20:00+19˚ne235834 0.0 1016334
4 december, fri
fri423:00+19˚e35620 0.0 1016362
02:00+17˚ese34580 0.0 1015207
05:00+16˚sse22580 0.0 1015102
08:00+17˚s23571 0.0 1016155
11:00+20˚sw344968 0.0 1016707
14:00+21˚w444884 0.0 10141310
17:00+20˚w3454100 0.0 1015580
20:00+19˚w2352100 0.0 1016493
5 december, sat
sat523:00+19˚ssw125178 0.0 1016563
02:00+18˚sw245439 0.0 1016536
05:00+18˚sw24550 0.0 1016637
08:00+18˚ssw23530 0.0 1016274
11:00+20˚sw33480 0.0 1017703
14:00+21˚wnw43480 0.0 1015801
17:00+20˚nw33520 0.0 1016372
20:00+19˚nne23560 0.0 1017294
6 december, sun
sun623:00+18˚ese12570 0.0 1018334
02:00+17˚s23660 0.0 1017103
05:00+16˚sse33660 0.0 1017109
08:00+16˚sse33620 0.0 1018125
11:00+20˚se34460 0.0 1018716
14:00+22˚ne33430 0.0 1016984
17:00+20˚ene67560 0.0 1016449
20:00+19˚e68630 0.0 1017498
7 december, mon
mon723:00+17˚ese69670 0.0 1017389
02:00+16˚se58660 0.0 1016265
05:00+16˚se58580 0.0 1016290
08:00+16˚ese59570 0.0 1017267
11:00+21˚ese57380 0.0 1016512
14:00+24˚e463613 0.0 1014538
17:00+22˚ene344532 0.0 101478
20:00+20˚e6104416 0.0 1014312